Wind_Speed
53 51 49 42 33 30 32 31 29 28 27 27 26 26 26 25 23 22 21 22 23 22 21 20 20 20 21 22 25 27 29 29 28 28 27 27 26 26 27 28 29 31 33 35
55 52 45 40 35 35 34 31 29 27 27 28 28 26 24 23 23 22 20 20 20 19 18 19 19 21 24 27 29 31 30 29 27 26 26 26 27 28 30 31 33 35 37 40
55 50 45 42 38 37 35 30 28 27 26 28 29 27 24 22 22 20 18 18 18 17 18 20 22 25 28 31 32 32 31 29 28 27 28 28 30 32 34 36 39 42 44 46
53 49 47 44 39 37 33 29 28 28 27 28 29 27 23 21 22 20 19 19 19 19 21 23 26 29 31 32 32 31 30 30 30 31 32 33 35 37 39 42 44 47 49 51
55 52 48 44 38 35 30 30 29 28 27 29 29 27 22 21 21 21 21 22 22 23 25 27 28 29 29 29 29 30 30 31 33 34 36 38 39 41 43 45 47 49 51 53
53 51 47 41 37 34 32 30 29 28 29 29 28 27 22 21 22 23 24 25 25 26 26 25 25 26 27 28 29 30 31 33 35 36 38 40 41 43 45 48 50 52 54 57
53 50 47 42 39 36 33 31 30 29 30 28 28 28 23 22 23 24 26 27 26 25 24 24 24 25 26 27 29 30 32 34 36 38 40 42 44 47 49 51 53 55 57 59
51 49 44 40 36 33 31 30 29 29 28 27 28 28 24 23 24 25 26 25 24 23 24 24 24 25 27 28 30 31 34 36 39 41 43 46 48 50 52 53 55 57 59 61
44 42 39 36 34 33 32 30 29 29 28 25 25 24 21 22 23 23 23 22 22 23 24 24 25 26 28 30 32 35 38 40 42 44 46 48 49 51 53 56 58 61 63 65
39 36 34 34 35 34 32 29 29 28 26 24 23 20 16 17 18 19 19 19 21 23 24 25 27 29 32 34 36 39 41 43 44 46 48 50 52 55 57 60 62 65 68 71
37 35 34 35 34 31 30 29 27 24 22 21 18 15 13 16 17 18 19 20 22 23 25 27 30 33 35 37 39 41 42 45 47 50 53 56 58 61 63 66 69 72 75 78
36 35 33 31 30 29 28 26 23 20 18 16 14 14 16 18 20 21 22 22 23 25 27 30 32 34 36 39 41 44 47 50 54 57 59 62 65 68 71 73 76 79 82 85
34 33 32 31 30 28 25 22 20 18 17 15 14 16 19 21 23 24 24 24 25 28 31 33 35 37 40 44 47 51 54 57 60 63 65 68 71 75 78 81 84 87 90 93
32 30 28 25 22 21 20 19 19 18 17 16 15 19 22 25 26 25 26 27 30 32 34 35 38 42 46 49 53 56 60 63 66 68 71 74 77 80 84 87 90 94 97 98
29 27 24 23 22 21 20 20 20 20 20 19 18 20 24 28 26 26 27 28 31 33 36 39 43 47 51 54 58 62 65 68 71 74 77 80 83 86 89 92 95 98 100 100
26 24 24 23 22 22 22 22 23 23 22 22 21 21 27 27 25 26 27 30 33 36 41 45 49 53 57 60 64 67 70 72 75 78 81 84 87 91 93 96 97 97 96 94
27 26 25 24 22 23 23 24 23 22 22 23 21 22 24 25 26 28 31 34 37 41 46 50 55 59 62 66 68 71 73 75 78 82 85 89 91 93 94 94 92 90 86 82
21 22 22 21 21 22 23 23 23 23 23 23 22 22 24 26 28 32 35 39 43 47 52 56 60 63 66 68 71 73 76 79 83 86 89 92 92 91 89 85 81 77 73 71
16 17 18 19 20 21 22 21 22 21 22 22 23 24 26 29 33 36 40 45 50 54 57 60 63 65 67 70 73 76 79 83 86 88 89 89 86 82 78 74 71 69 67 67
15 16 17 18 19 20 19 19 19 20 22 23 25 27 31 35 39 42 47 51 54 57 60 62 65 67 70 73 75 79 82 85 86 86 84 81 77 74 71 69 68 68 69 70
15 16 16 17 18 19 19 19 20 22 24 28 31 34 38 42 46 50 53 56 58 61 63 65 68 70 73 75 78 82 84 85 84 81 77 73 71 69 69 69 71 73 75 77
18 19 19 20 21 21 21 23 25 27 30 33 37 40 44 48 51 54 57 59 61 64 66 69 71 73 75 78 81 83 83 81 78 74 71 70 69 70 72 74 76 79 83 86
22 22 22 23 25 25 26 28 30 32 36 39 43 46 50 53 55 58 60 62 64 67 69 71 73 75 77 80 82 81 79 75 71 69 68 69 70 73 76 80 83 86 89 93
26 26 25 26 29 31 32 34 36 39 42 44 47 50 52 55 57 59 61 64 67 70 71 73 75 78 80 81 81 78 74 70 68 68 68 71 74 77 81 85 89 92 94 96
29 28 28 30 33 36 38 40 42 44 46 48 50 52 54 56 58 60 63 67 69 71 73 75 77 80 80 79 76 73 69 67 67 68 71 75 79 83 87 89 91 92 90 88
32 31 32 33 36 38 40 44 46 48 50 52 54 55 57 59 61 63 66 69 70 72 74 76 78 79 78 74 71 68 66 66 69 72 76 80 84 87 89 88 85 79 74 69
Wind_Direction
214 216 217 217 218 219 222 225 227 228 230 235 236 238 245 255 259 260 260 260 263 265 264 262 261 262 266 272 278 282 284 286 287 287 288 289 289 287 286 286 288 290 292 294
213 217 218 219 216 218 222 224 228 230 232 235 238 241 248 256 260 259 259 261 262 260 259 260 264 270 276 281 284 285 286 286 286 286 287 288 290 291 292 294 296 297 297 298
214 216 218 219 218 220 223 225 229 233 235 237 239 242 247 254 259 261 261 261 258 256 260 265 271 276 280 283 285 287 288 289 289 290 290 292 294 296 298 299 300 300 301 301
213 215 217 219 220 222 225 227 231 235 238 239 240 244 245 253 259 260 259 258 257 260 265 270 273 276 278 280 283 286 288 291 293 294 296 298 299 301 301 301 301 302 301 301
209 212 216 218 219 223 225 229 233 239 243 243 243 247 246 254 258 256 256 257 260 265 269 272 273 274 276 278 282 286 290 293 296 298 299 300 301 300 300 300 299 299 298 297
207 211 215 216 218 222 225 229 235 240 244 246 248 250 249 254 253 253 254 257 262 266 268 270 272 274 276 280 285 290 293 296 297 298 298 298 298 297 297 296 295 295 294 294
201 205 211 212 215 219 224 228 235 241 246 249 250 253 252 251 250 250 253 257 260 263 265 267 272 277 281 286 290 292 294 294 294 295 295 295 295 295 295 295 295 295 296 295
201 203 208 212 215 220 225 230 237 244 250 252 254 255 252 248 245 247 251 256 259 262 266 272 280 285 288 290 291 292 291 291 292 293 294 294 295 296 297 298 299 299 299 299
198 202 206 210 212 216 221 229 237 243 246 247 250 251 245 242 241 243 248 254 260 266 275 283 286 286 287 288 289 290 290 290 291 293 294 296 298 299 300 300 301 301 301 300
192 198 203 205 208 213 219 224 231 236 240 242 245 246 243 243 246 249 254 261 267 276 282 284 284 285 288 289 290 289 290 291 294 295 297 298 299 299 300 300 300 300 300 300
189 195 199 203 207 213 217 222 227 232 235 237 241 246 246 248 255 260 265 269 275 279 281 282 284 287 289 290 290 292 294 297 298 298 299 299 299 300 300 300 300 299 299 298
189 190 196 202 205 210 214 217 221 226 229 232 241 254 257 262 267 270 273 276 278 279 280 282 285 289 291 293 295 297 299 300 300 300 299 299 299 299 299 299 299 298 298 297
186 189 194 198 203 208 211 214 218 224 229 232 242 254 262 268 271 274 278 281 283 283 284 288 292 294 296 298 300 301 301 301 301 300 300 300 300 300 300 300 299 299 298 298
186 191 196 200 205 210 214 219 224 230 236 242 247 254 262 265 269 277 283 286 286 288 291 294 296 298 300 301 302 302 302 302 301 301 301 301 301 301 301 300 300 299 298 297
188 191 195 198 202 210 217 224 231 236 241 243 242 250 260 267 276 283 285 286 289 292 296 298 300 301 301 302 303 302 302 302 301 301 302 302 302 302 301 300 300 299 298 297
194 198 202 205 209 216 223 230 235 238 241 244 246 251 260 273 281 283 286 290 294 297 299 301 302 302 302 302 302 301 301 301 302 302 303 302 302 302 301 300 300 299 298 297
202 205 209 213 218 222 225 231 237 243 249 253 254 255 265 275 281 287 292 295 297 299 301 302 302 302 302 302 301 302 302 302 303 303 303 303 303 303 302 300 299 299 299 299
203 207 211 213 217 224 228 234 241 248 253 258 259 263 270 279 286 291 296 298 299 301 302 302 302 301 302 302 302 303 303 304 305 305 305 304 304 303 301 300 300 300 300 300
214 218 223 226 229 235 240 240 245 251 257 263 269 276 282 286 290 295 298 300 302 302 302 302 302 302 302 303 303 304 305 306 306 306 305 305 303 302 301 301 301 301 301 301
230 232 233 234 236 240 246 248 250 255 264 273 279 284 288 291 295 299 300 302 302 302 303 303 303 303 304 305 306 307 307 307 307 307 305 304 303 302 301 301 300 300 300 301
243 242 241 240 242 245 251 255 259 266 273 278 284 289 293 296 298 300 302 303 303 304 304 305 305 306 307 307 308 308 309 309 308 307 305 303 302 301 301 301 301 301 301 302
251 250 247 246 247 251 256 260 266 273 278 284 288 292 295 298 300 302 304 305 305 306 306 307 308 308 308 308 309 310 309 309 308 306 305 304 303 303 303 303 304 304 304 303
252 251 251 253 257 260 263 268 274 279 285 289 293 297 300 302 304 306 307 307 307 308 308 308 308 309 309 310 310 310 310 309 307 306 306 305 305 306 306 306 306 305 305 304
253 252 253 259 265 269 273 277 282 287 292 296 300 303 305 306 307 307 308 308 308 308 308 308 309 310 311 311 311 310 310 309 308 308 308 308 308 308 307 307 307 306 305 304
257 259 261 265 270 275 281 285 289 293 297 300 303 305 306 306 306 306 307 307 307 307 308 308 310 311 311 311 311 310 310 310 310 310 310 310 310 309 308 307 307 307 307 307
262 265 268 271 275 280 285 290 294 297 300 302 303 303 303 304 304 305 305 306 306 307 308 310 311 311 311 311 310 310 311 311 312 312 312 312 311 310 309 308 308 310 311 312
Height
5736 5745 5752 5764 5775 5781 5784 5788 5792 5797 5802 5806 5809 5812 5813 5815 5818 5819 5819 5819 5819 5818 5819 5820 5820 5821 5821 5821 5820 5819 5817 5815 5812 5809 5806 5803 5801 5798 5796 5793 5791 5788 5786 5783
5732 5740 5752 5761 5769 5774 5778 5784 5789 5794 5798 5802 5805 5808 5810 5812 5813 5814 5814 5814 5814 5814 5815 5816 5816 5816 5815 5814 5813 5811 5810 5808 5806 5803 5800 5797 5794 5791 5789 5786 5784 5781 5778 5775
5728 5740 5749 5756 5764 5770 5775 5782 5787 5790 5793 5796 5800 5804 5806 5808 5809 5809 5809 5809 5810 5810 5811 5811 5810 5810 5809 5807 5805 5803 5801 5800 5798 5796 5793 5791 5788 5785 5782 5779 5776 5772 5769 5765
5726 5736 5744 5752 5761 5767 5773 5779 5783 5785 5788 5792 5796 5799 5803 5804 5804 5804 5804 5805 5806 5806 5806 5805 5804 5803 5802 5800 5798 5797 5794 5792 5790 5788 5785 5783 5780 5777 5774 5770 5767 5763 5758 5754
5723 5732 5739 5749 5759 5765 5771 5775 5778 5781 5784 5787 5790 5794 5799 5799 5799 5799 5800 5801 5801 5801 5800 5799 5798 5797 5796 5794 5792 5790 5788 5785 5782 5780 5777 5775 5772 5768 5765 5761 5757 5753 5748 5743
5722 5731 5739 5748 5756 5762 5767 5770 5773 5775 5779 5783 5786 5788 5794 5795 5794 5794 5795 5796 5796 5796 5794 5793 5792 5790 5789 5788 5786 5784 5781 5778 5775 5772 5769 5766 5762 5759 5755 5751 5746 5742 5737 5732
5716 5726 5735 5743 5750 5757 5762 5766 5769 5771 5774 5779 5780 5783 5790 5790 5789 5788 5789 5790 5790 5789 5788 5786 5785 5784 5783 5782 5780 5777 5774 5770 5767 5763 5760 5756 5752 5747 5743 5739 5734 5729 5724 5719
5714 5723 5733 5741 5749 5754 5759 5763 5767 5770 5772 5775 5775 5778 5784 5784 5783 5782 5783 5784 5784 5782 5781 5780 5779 5778 5776 5774 5772 5768 5765 5761 5757 5753 5749 5745 5740 5735 5730 5725 5720 5715 5709 5704
5715 5725 5733 5740 5746 5751 5754 5758 5762 5765 5767 5769 5770 5773 5776 5777 5776 5777 5778 5778 5777 5775 5774 5773 5772 5770 5768 5766 5763 5759 5755 5751 5747 5742 5738 5733 5728 5723 5718 5712 5706 5700 5694 5688
5717 5725 5732 5737 5742 5746 5751 5754 5757 5760 5762 5764 5766 5768 5771 5771 5771 5772 5773 5772 5770 5769 5767 5765 5763 5761 5760 5757 5754 5749 5745 5741 5737 5732 5728 5722 5717 5711 5705 5699 5693 5686 5678 5671
5716 5723 5729 5734 5738 5743 5747 5750 5753 5755 5758 5761 5762 5766 5766 5765 5766 5766 5765 5765 5763 5762 5760 5758 5756 5754 5751 5748 5744 5740 5736 5732 5727 5722 5716 5710 5704 5697 5691 5684 5677 5669 5662 5653
5714 5720 5726 5732 5737 5739 5743 5746 5749 5753 5755 5757 5758 5763 5759 5759 5759 5758 5758 5758 5757 5755 5753 5751 5749 5746 5742 5738 5734 5730 5726 5721 5715 5709 5703 5696 5689 5682 5675 5668 5660 5652 5643 5634
5712 5718 5723 5728 5734 5737 5740 5743 5746 5749 5752 5753 5754 5757 5754 5752 5751 5751 5751 5751 5750 5748 5745 5743 5740 5736 5732 5728 5723 5719 5713 5707 5701 5694 5687 5680 5673 5665 5658 5650 5641 5632 5623 5613
5713 5718 5724 5729 5733 5736 5739 5741 5744 5746 5748 5749 5750 5749 5747 5745 5744 5745 5744 5743 5741 5738 5736 5734 5730 5726 5721 5716 5710 5704 5698 5691 5684 5677 5670 5662 5655 5647 5639 5630 5621 5610 5600 5589
5712 5717 5722 5726 5730 5733 5735 5738 5740 5742 5743 5743 5744 5743 5741 5737 5738 5739 5737 5734 5732 5729 5727 5723 5719 5714 5708 5703 5696 5690 5683 5675 5668 5660 5652 5644 5636 5627 5618 5608 5597 5586 5575 5563
5711 5715 5719 5723 5726 5729 5731 5733 5734 5735 5735 5736 5737 5737 5734 5733 5732 5731 5729 5726 5723 5720 5715 5711 5706 5700 5695 5688 5682 5674 5667 5659 5651 5643 5634 5626 5616 5606 5595 5584 5573 5561 5550 5539
5708 5712 5716 5720 5722 5723 5726 5726 5727 5728 5729 5730 5731 5731 5728 5727 5725 5723 5720 5717 5713 5708 5704 5698 5692 5686 5680 5673 5666 5658 5651 5643 5634 5625 5615 5605 5595 5583 5571 5559 5548 5537 5527 5518
5705 5708 5711 5714 5717 5718 5722 5721 5722 5722 5722 5723 5724 5723 5723 5721 5718 5715 5711 5707 5702 5697 5691 5685 5679 5673 5666 5658 5650 5642 5634 5625 5616 5605 5593 5582 5571 5560 5547 5536 5525 5516 5508 5499
5702 5704 5707 5709 5710 5712 5714 5715 5716 5716 5716 5716 5716 5716 5714 5712 5709 5706 5701 5696 5691 5685 5679 5673 5666 5659 5651 5643 5635 5626 5617 5607 5596 5584 5572 5559 5548 5537 5526 5516 5507 5498 5491 5483
5697 5699 5702 5703 5704 5706 5708 5709 5709 5711 5710 5709 5708 5706 5704 5701 5698 5695 5689 5684 5679 5673 5666 5659 5651 5643 5635 5626 5617 5608 5598 5587 5575 5563 5550 5537 5526 5516 5507 5499 5490 5481 5473 5464
5692 5694 5695 5697 5698 5699 5701 5702 5703 5705 5704 5701 5699 5696 5693 5689 5686 5681 5676 5671 5665 5658 5651 5643 5634 5625 5617 5609 5599 5589 5579 5567 5554 5541 5529 5519 5508 5498 5490 5481 5472 5462 5454 5445
5687 5689 5690 5691 5693 5696 5695 5695 5696 5695 5693 5691 5688 5685 5682 5677 5673 5668 5662 5655 5649 5641 5633 5625 5616 5608 5599 5591 5581 5569 5558 5546 5534 5523 5512 5502 5492 5482 5472 5463 5453 5443 5432 5422
5681 5684 5685 5687 5688 5688 5687 5687 5686 5685 5683 5679 5676 5672 5667 5662 5657 5651 5645 5638 5631 5623 5616 5607 5599 5590 5580 5570 5559 5548 5537 5526 5515 5505 5495 5486 5477 5466 5455 5444 5433 5423 5410 5397
5674 5676 5679 5679 5678 5677 5677 5676 5675 5673 5670 5666 5662 5657 5652 5646 5640 5634 5628 5621 5614 5607 5599 5590 5581 5571 5561 5549 5537 5527 5517 5507 5498 5489 5479 5470 5460 5450 5439 5426 5412 5399 5385 5371
5666 5668 5670 5671 5669 5667 5665 5663 5662 5659 5656 5651 5647 5642 5637 5632 5626 5620 5614 5607 5599 5591 5583 5573 5563 5553 5542 5530 5518 5508 5499 5491 5482 5474 5464 5454 5443 5430 5419 5406 5392 5377 5363 5345
5657 5660 5661 5661 5659 5657 5655 5651 5648 5645 5641 5637 5633 5628 5624 5618 5613 5606 5599 5592 5584 5575 5566 5556 5545 5534 5524 5512 5501 5492 5484 5475 5467 5458 5448 5436 5423 5410 5395 5382 5373 5360 5343 5330